| time (UTC) | temp F | wind direction | speed knots | gust knots | rain 1hr in | rain 24hr in | rain mn in | humidity % | barometer mb |
| 20260508105043 | 51 | 256 | 0.0 | 0.0 | 0.00 | 0.00 | 0.00 | 92 | 1016.7 |
| 20260508104541 | 51 | 252 | 0.9 | 0.9 | 0.00 | 0.00 | 0.00 | 93 | 1016.5 |
| 20260508104037 | 51 | 265 | 0.9 | 0.9 | 0.00 | 0.00 | 0.00 | 93 | 1016.4 |
| 20260508103534 | 51 | 274 | 0.9 | 0.9 | 0.00 | 0.00 | 0.00 | 93 | 1016.2 |
| 20260508103031 | 51 | 273 | 0.0 | 0.0 | 0.00 | 0.00 | 0.00 | 94 | 1016.5 |
| 20260508102529 | 51 | 272 | 0.9 | 0.9 | 0.00 | 0.00 | 0.00 | 94 | 1016.4 |
| 20260508102026 | 51 | 273 | 0.0 | 0.0 | 0.00 | 0.00 | 0.00 | 94 | 1016.6 |
| 20260508101524 | 51 | 260 | 1.7 | 2.6 | 0.00 | 0.00 | 0.00 | 94 | 1016.5 |
| 20260508101020 | 51 | 282 | 0.0 | 0.0 | 0.00 | 0.00 | 0.00 | 94 | 1016.1 |
| 20260508100519 | 51 | 277 | 0.0 | 0.0 | 0.00 | 0.00 | 0.00 | 94 | 1016.0 |
| 20260508100015 | 51 | 290 | 0.0 | 0.0 | 0.00 | 0.00 | 0.00 | 94 | 1016.1 |
| 20260508095513 | 51 | 293 | 0.0 | 0.9 | 0.00 | 0.00 | 0.00 | 94 | 1016.4 |
| 20260508095009 | 51 | 285 | 0.0 | 0.0 | 0.00 | 0.00 | 0.00 | 94 | 1016.2 |
| 20260508094506 | 51 | 287 | 0.9 | 0.9 | 0.00 | 0.00 | 0.00 | 94 | 1016.2 |
| 20260508094003 | 51 | 288 | 0.0 | 0.9 | 0.00 | 0.00 | 0.00 | 93 | 1016.4 |
| 20260508093500 | 51 | 281 | 0.9 | 0.9 | 0.00 | 0.00 | 0.00 | 93 | 1016.3 |
| 20260508092958 | 51 | 295 | 0.0 | 0.0 | 0.00 | 0.00 | 0.00 | 93 | 1015.8 |
| 20260508092455 | 51 | 300 | 0.0 | 0.0 | 0.00 | 0.00 | 0.00 | 93 | 1016.1 |
| 20260508091954 | 51 | 292 | 0.9 | 0.9 | 0.00 | 0.00 | 0.00 | 93 | 1016.1 |
| 20260508091450 | 51 | 299 | 0.9 | 1.7 | 0.00 | 0.00 | 0.00 | 93 | 1016.4 |
| 20260508090947 | 51 | 274 | 0.9 | 1.7 | 0.00 | 0.00 | 0.00 | 93 | 1016.0 |
| 20260508090446 | 51 | 280 | 0.9 | 2.6 | 0.00 | 0.00 | 0.00 | 93 | 1016.1 |
| 20260508085941 | 51 | 279 | 0.0 | 0.0 | 0.00 | 0.00 | 0.00 | 93 | 1016.2 |
| 20260508085438 | 51 | 283 | 0.0 | 0.0 | 0.00 | 0.00 | 0.00 | 93 | 1016.1 |
| 20260508084935 | 51 | 292 | 0.0 | 0.0 | 0.00 | 0.00 | 0.00 | 92 | 1016.2 |
| 20260508084432 | 52 | 293 | 0.0 | 0.0 | 0.00 | 0.00 | 0.00 | 92 | 1016.3 |
| 20260508083930 | 52 | 285 | 0.0 | 0.0 | 0.00 | 0.00 | 0.00 | 92 | 1016.3 |
| 20260508083427 | 52 | 292 | 0.0 | 0.0 | 0.00 | 0.00 | 0.00 | 92 | 1016.3 |
| 20260508082926 | 52 | 289 | 0.0 | 0.0 | 0.00 | 0.00 | 0.00 | 92 | 1016.1 |
| 20260508082424 | 52 | 286 | 0.0 | 0.0 | 0.00 | 0.00 | 0.00 | 92 | 1016.3 |
| 20260508081922 | 52 | 290 | 0.0 | 0.0 | 0.00 | 0.00 | 0.00 | 92 | 1016.3 |
| 20260508081418 | 52 | 285 | 0.0 | 0.0 | 0.00 | 0.00 | 0.00 | 92 | 1016.4 |
| 20260508080915 | 52 | 291 | 0.0 | 0.0 | 0.00 | 0.00 | 0.00 | 91 | 1016.3 |
| 20260508080413 | 52 | 275 | 0.0 | 0.0 | 0.00 | 0.00 | 0.00 | 91 | 1016.3 |
| 20260508075909 | 53 | 279 | 0.0 | 0.0 | 0.00 | 0.00 | 0.00 | 91 | 1016.3 |
| 20260508075407 | 53 | 281 | 0.0 | 0.0 | 0.00 | 0.00 | 0.00 | 91 | 1016.2 |
| 20260508074904 | 53 | 290 | 0.0 | 0.0 | 0.00 | 0.00 | 0.00 | 90 | 1016.2 |
| 20260508074401 | 53 | 280 | 0.0 | 0.0 | 0.00 | 0.00 | 0.00 | 90 | 1016.4 |
| 20260508073858 | 53 | 281 | 0.0 | 0.0 | 0.00 | 0.00 | 0.00 | 90 | 1016.3 |
| 20260508073356 | 53 | 279 | 0.0 | 0.0 | 0.00 | 0.00 | 0.00 | 90 | 1016.4 |
| 20260508072852 | 53 | 279 | 0.0 | 0.0 | 0.00 | 0.00 | 0.00 | 90 | 1016.1 |
| 20260508072349 | 53 | 281 | 0.0 | 0.0 | 0.00 | 0.00 | 0.00 | 90 | 1016.5 |
| 20260508071846 | 53 | 281 | 0.0 | 0.0 | 0.00 | 0.00 | 0.00 | 90 | 1016.1 |
| 20260508071345 | 53 | 290 | 0.0 | 0.0 | 0.00 | 0.00 | 0.00 | 89 | 1016.3 |
| 20260508070842 | 53 | 290 | 0.0 | 0.0 | 0.00 | 0.00 | 0.00 | 89 | 1016.2 |
| 20260508070340 | 54 | 286 | 0.0 | 0.0 | 0.00 | 0.00 | 0.00 | 89 | 1016.3 |
| 20260508065837 | 53 | 273 | 0.0 | 0.0 | 0.00 | 0.00 | 0.00 | 89 | 1016.4 |
| 20260508065335 | 53 | 288 | 0.0 | 0.0 | 0.00 | 0.00 | 0.00 | 88 | 1016.5 |
| 20260508064833 | 53 | 287 | 0.0 | 0.0 | 0.00 | 0.00 | 0.00 | 88 | 1016.5 |
| 20260508064330 | 54 | 286 | 0.0 | 0.0 | 0.00 | 0.00 | 0.00 | 88 | 1016.5 |
| 20260508063828 | 54 | 286 | 0.0 | 0.0 | 0.00 | 0.00 | 0.00 | 87 | 1016.2 |
| 20260508063326 | 54 | 282 | 0.0 | 0.0 | 0.00 | 0.00 | 0.00 | 85 | 1016.4 |
| 20260508062822 | 53 | 290 | 0.0 | 0.0 | 0.00 | 0.00 | 0.00 | 83 | 1016.3 |
| 20260508062320 | 54 | 287 | 0.0 | 0.0 | 0.00 | 0.00 | 0.00 | 83 | 1016.5 |
| 20260508061816 | 54 | 288 | 0.0 | 0.0 | 0.00 | 0.00 | 0.00 | 82 | 1016.3 |
| 20260508061314 | 55 | 290 | 0.0 | 0.0 | 0.00 | 0.00 | 0.00 | 82 | 1016.4 |
| 20260508060810 | 55 | 289 | 0.0 | 0.0 | 0.00 | 0.00 | 0.00 | 81 | 1016.5 |
| 20260508060308 | 55 | 287 | 0.0 | 0.0 | 0.00 | 0.00 | 0.00 | 80 | 1016.3 |
| 20260508055803 | 56 | 300 | 0.0 | 0.0 | 0.00 | 0.00 | 0.00 | 79 | 1016.6 |
| 20260508055301 | 56 | 296 | 0.0 | 0.0 | 0.00 | 0.00 | 0.00 | 78 | 1016.7 |
| 20260508054756 | 57 | 286 | 0.0 | 0.0 | 0.00 | 0.00 | 0.00 | 77 | 1016.6 |
| 20260508054255 | 57 | 288 | 0.0 | 0.0 | 0.00 | 0.00 | 0.00 | 76 | 1016.5 |
| 20260508053751 | 57 | 287 | 0.0 | 0.0 | 0.00 | 0.00 | 0.00 | 75 | 1016.6 |
| 20260508053249 | 57 | 286 | 0.0 | 0.0 | 0.00 | 0.00 | 0.00 | 74 | 1016.4 |
| 20260508052746 | 57 | 287 | 0.0 | 0.0 | 0.00 | 0.00 | 0.00 | 75 | 1016.6 |
| 20260508052243 | 57 | 314 | 0.0 | 0.0 | 0.00 | 0.00 | 0.00 | 74 | 1016.5 |
| 20260508051739 | 57 | 339 | 0.0 | 0.0 | 0.00 | 0.00 | 0.00 | 73 | 1016.5 |
| 20260508051235 | 58 | 348 | 0.0 | 0.0 | 0.00 | 0.00 | 0.00 | 73 | 1016.3 |
| 20260508050731 | 58 | 28 | 0.0 | 0.0 | 0.00 | 0.00 | 0.00 | 72 | 1016.4 |
| 20260508050230 | 58 | 26 | 0.0 | 0.0 | 0.00 | 0.00 | 0.00 | 72 | 1016.5 |
| 20260508045724 | 58 | 359 | 0.0 | 0.0 | 0.00 | 0.00 | 0.00 | 72 | 1016.5 |
| 20260508045222 | 58 | 359 | 0.0 | 0.0 | 0.00 | 0.00 | 0.00 | 72 | 1016.6 |
| 20260508044720 | 59 | 340 | 0.0 | 0.0 | 0.00 | 0.00 | 0.00 | 71 | 1016.5 |
| 20260508044216 | 59 | 14 | 0.0 | 0.0 | 0.00 | 0.00 | 0.00 | 71 | 1016.6 |
| 20260508043712 | 59 | 357 | 0.0 | 0.0 | 0.00 | 0.00 | 0.00 | 71 | 1016.6 |
| 20260508043210 | 59 | 34 | 0.0 | 0.0 | 0.00 | 0.00 | 0.00 | 70 | 1016.6 |
| 20260508042706 | 59 | 15 | 0.0 | 0.0 | 0.00 | 0.00 | 0.00 | 70 | 1016.6 |
| 20260508042204 | 59 | 350 | 0.0 | 0.0 | 0.00 | 0.00 | 0.00 | 70 | 1016.7 |
| 20260508041700 | 59 | 17 | 0.0 | 0.0 | 0.00 | 0.00 | 0.00 | 69 | 1016.9 |
| 20260508041157 | 59 | 344 | 0.0 | 0.0 | 0.00 | 0.00 | 0.00 | 69 | 1016.6 |
| 20260508040653 | 60 | 334 | 0.0 | 0.0 | 0.00 | 0.00 | 0.00 | 69 | 1016.7 |
| 20260508040151 | 60 | 343 | 0.0 | 0.0 | 0.00 | 0.00 | 0.00 | 68 | 1016.7 |
| 20260508035648 | 60 | 346 | 0.9 | 0.9 | 0.00 | 0.00 | 0.00 | 68 | 1016.7 |
| 20260508035145 | 60 | 3 | 0.9 | 0.9 | 0.00 | 0.00 | 0.00 | 68 | 1016.5 |
| 20260508034642 | 60 | 7 | 1.7 | 1.7 | 0.00 | 0.00 | 0.00 | 68 | 1016.4 |
| 20260508034139 | 60 | 29 | 2.6 | 2.6 | 0.00 | 0.00 | 0.00 | 67 | 1016.5 |
| 20260508033636 | 60 | 16 | 1.7 | 1.7 | 0.00 | 0.00 | 0.00 | 68 | 1016.4 |
| 20260508033134 | 61 | 345 | 0.0 | 0.0 | 0.00 | 0.00 | 0.00 | 67 | 1016.6 |
| 20260508032630 | 61 | 358 | 0.9 | 0.9 | 0.00 | 0.00 | 0.00 | 66 | 1016.5 |
| 20260508032128 | 61 | 4 | 0.9 | 1.7 | 0.00 | 0.00 | 0.00 | 66 | 1016.7 |
| 20260508031625 | 61 | 357 | 1.7 | 1.7 | 0.00 | 0.00 | 0.00 | 65 | 1016.5 |
| 20260508031121 | 61 | 17 | 1.7 | 2.6 | 0.00 | 0.00 | 0.00 | 64 | 1016.5 |
| 20260508030618 | 62 | 2 | 0.9 | 1.7 | 0.00 | 0.00 | 0.00 | 64 | 1016.6 |
| 20260508030116 | 62 | 298 | 0.0 | 0.0 | 0.00 | 0.00 | 0.00 | 63 | 1016.6 |
| 20260508025612 | 63 | 296 | 0.0 | 0.9 | 0.00 | 0.00 | 0.00 | 62 | 1016.7 |
| 20260508025109 | 63 | 311 | 0.9 | 0.9 | 0.00 | 0.00 | 0.00 | 62 | 1016.6 |
| 20260508024605 | 63 | 289 | 0.9 | 1.7 | 0.00 | 0.00 | 0.00 | 61 | 1016.9 |
| 20260508024102 | 63 | 286 | 0.0 | 0.0 | 0.00 | 0.00 | 0.00 | 62 | 1016.8 |
| 20260508023558 | 63 | 297 | 0.0 | 0.0 | 0.00 | 0.00 | 0.00 | 61 | 1016.8 |
| 20260508023056 | 63 | 293 | 0.9 | 0.9 | 0.00 | 0.00 | 0.00 | 61 | 1016.6 |
| 20260508022551 | 63 | 293 | 0.0 | 0.9 | 0.00 | 0.00 | 0.00 | 61 | 1016.6 |
| 20260508022049 | 63 | 293 | 0.0 | 0.9 | 0.00 | 0.00 | 0.00 | 61 | 1016.9 |
| 20260508021544 | 64 | 284 | 3.5 | 4.3 | 0.00 | 0.00 | 0.00 | 59 | 1016.8 |
| 20260508021040 | 65 | 235 | 0.9 | 1.7 | 0.00 | 0.00 | 0.00 | 58 | 1016.8 |
| 20260508020538 | 64 | 305 | 0.0 | 0.0 | 0.00 | 0.00 | 0.00 | 58 | 1017.0 |
| 20260508020036 | 65 | 292 | 2.6 | 2.6 | 0.00 | 0.00 | 0.00 | 58 | 1017.0 |
| 20260508015533 | 65 | 297 | 0.0 | 0.0 | 0.00 | 0.00 | 0.00 | 57 | 1016.8 |
| 20260508015030 | 64 | 314 | 0.0 | 0.0 | 0.00 | 0.00 | 0.00 | 57 | 1017.0 |
| 20260508014526 | 64 | 197 | 1.7 | 2.6 | 0.00 | 0.00 | 0.00 | 57 | 1016.8 |
| 20260508014022 | 64 | 229 | 1.7 | 1.7 | 0.00 | 0.00 | 0.00 | 58 | 1016.8 |
| 20260508013519 | 64 | 317 | 0.0 | 0.0 | 0.00 | 0.00 | 0.00 | 58 | 1016.9 |
| 20260508013016 | 64 | 163 | 3.5 | 4.3 | 0.00 | 0.00 | 0.00 | 58 | 1016.9 |
| 20260508012513 | 64 | 116 | 3.5 | 5.2 | 0.00 | 0.00 | 0.00 | 57 | 1017.1 |
| 20260508012011 | 63 | 345 | 0.0 | 0.9 | 0.00 | 0.00 | 0.00 | 59 | 1017.1 |
| 20260508011509 | 66 | 151 | 3.5 | 4.3 | 0.00 | 0.00 | 0.00 | 57 | 1017.0 |
| 20260508011006 | 66 | 287 | 0.0 | 0.9 | 0.00 | 0.00 | 0.00 | 56 | 1017.3 |
| 20260508010502 | 66 | 273 | 1.7 | 1.7 | 0.00 | 0.00 | 0.00 | 55 | 1017.3 |
| 20260508010000 | 66 | 262 | 2.6 | 2.6 | 0.00 | 0.00 | 0.00 | 55 | 1017.4 |
| 20260508005456 | 65 | 319 | 0.0 | 0.0 | 0.00 | 0.00 | 0.00 | 56 | 1017.4 |
| 20260508004953 | 64 | 63 | 1.7 | 1.7 | 0.00 | 0.00 | 0.00 | 57 | 1017.5 |
| 20260508004449 | 65 | 354 | 3.5 | 4.3 | 0.00 | 0.00 | 0.00 | 57 | 1017.4 |
| 20260508003946 | 64 | 346 | 0.9 | 1.7 | 0.00 | 0.00 | 0.00 | 59 | 1017.4 |
| 20260508003443 | 65 | 12 | 3.5 | 4.3 | 0.00 | 0.00 | 0.00 | 58 | 1017.6 |
| 20260508002940 | 65 | 233 | 0.9 | 0.9 | 0.00 | 0.00 | 0.00 | 57 | 1017.7 |
| 20260508002436 | 65 | 297 | 0.9 | 0.9 | 0.00 | 0.00 | 0.00 | 58 | 1017.7 |
| 20260508001932 | 65 | 349 | 0.9 | 1.7 | 0.00 | 0.00 | 0.00 | 57 | 1017.5 |
| 20260508001429 | 65 | 273 | 4.3 | 5.2 | 0.00 | 0.00 | 0.00 | 56 | 1017.8 |
| 20260508000925 | 66 | 261 | 0.9 | 1.7 | 0.00 | 0.00 | 0.00 | 57 | 1017.6 |
| 20260508000421 | 64 | 299 | 1.7 | 2.6 | 0.00 | 0.00 | 0.00 | 60 | 1017.8 |
| 20260507235918 | 63 | 320 | 0.9 | 1.7 | 0.00 | 0.00 | 0.00 | 62 | 1017.7 |
| 20260507235415 | 64 | 256 | 0.0 | 0.0 | 0.00 | 0.00 | 0.00 | 60 | 1017.8 |
| 20260507234912 | 64 | 285 | 1.7 | 2.6 | 0.00 | 0.00 | 0.00 | 61 | 1018.0 |
| 20260507234409 | 64 | 316 | 0.0 | 0.0 | 0.00 | 0.00 | 0.00 | 60 | 1017.8 |
| 20260507233906 | 63 | 283 | 5.2 | 6.1 | 0.00 | 0.00 | 0.00 | 61 | 1017.8 |
| 20260507233403 | 64 | 261 | 4.3 | 5.2 | 0.00 | 0.00 | 0.00 | 60 | 1017.7 |
| 20260507232901 | 63 | 311 | 1.7 | 2.6 | 0.00 | 0.00 | 0.00 | 61 | 1018.0 |
| 20260507232357 | 65 | 284 | 2.6 | 5.2 | 0.00 | 0.00 | 0.00 | 60 | 1017.9 |
| 20260507231855 | 63 | 302 | 3.5 | 5.2 | 0.00 | 0.00 | 0.00 | 61 | 1017.9 |
| 20260507231351 | 64 | 297 | 5.2 | 7.0 | 0.00 | 0.00 | 0.00 | 60 | 1018.0 |
| 20260507230848 | 64 | 296 | 0.0 | 0.9 | 0.00 | 0.00 | 0.00 | 61 | 1018.2 |
| 20260507230345 | 63 | 259 | 3.5 | 6.1 | 0.00 | 0.00 | 0.00 | 61 | 1018.2 |
| 20260507225845 | 62 | 325 | 3.5 | 5.2 | 0.00 | 0.00 | 0.00 | 61 | 1018.1 |
| 20260507225341 | 64 | 301 | 4.3 | 6.1 | 0.00 | 0.00 | 0.00 | 60 | 1018.3 |
| 20260507224837 | 63 | 306 | 2.6 | 4.3 | 0.00 | 0.00 | 0.00 | 61 | 1018.4 |
| 20260507224334 | 63 | 320 | 2.6 | 4.3 | 0.00 | 0.00 | 0.00 | 61 | 1018.5 |
| 20260507223830 | 64 | 257 | 5.2 | 6.1 | 0.00 | 0.00 | 0.00 | 60 | 1018.3 |
| 20260507223326 | 63 | 241 | 3.5 | 5.2 | 0.00 | 0.00 | 0.00 | 60 | 1018.3 |
| 20260507222824 | 63 | 294 | 0.9 | 0.9 | 0.00 | 0.00 | 0.00 | 61 | 1018.5 |
| 20260507222320 | 66 | 303 | 5.2 | 7.0 | 0.00 | 0.00 | 0.00 | 57 | 1018.6 |
| 20260507221817 | 64 | 261 | 3.5 | 5.2 | 0.00 | 0.00 | 0.00 | 59 | 1018.5 |
| 20260507221314 | 65 | 268 | 0.9 | 1.7 | 0.00 | 0.00 | 0.00 | 59 | 1018.5 |
| 20260507220810 | 65 | 295 | 5.2 | 7.0 | 0.00 | 0.00 | 0.00 | 57 | 1018.4 |
| 20260507220308 | 66 | 305 | 4.3 | 5.2 | 0.00 | 0.00 | 0.00 | 56 | 1018.6 |
| 20260507215804 | 65 | 304 | 0.9 | 0.9 | 0.00 | 0.00 | 0.00 | 58 | 1018.6 |
| 20260507215306 | 66 | 305 | 0.9 | 1.7 | 0.00 | 0.00 | 0.00 | 57 | 1018.5 |
| 20260507214759 | 65 | 334 | 2.6 | 4.3 | 0.00 | 0.00 | 0.00 | 58 | 1018.6 |
| 20260507214256 | 63 | 315 | 0.0 | 0.0 | 0.00 | 0.00 | 0.00 | 61 | 1018.9 |
| 20260507213750 | 65 | 243 | 2.6 | 2.6 | 0.00 | 0.00 | 0.00 | 58 | 1018.9 |
| 20260507213248 | 62 | 178 | 1.7 | 2.6 | 0.00 | 0.00 | 0.00 | 63 | 1018.9 |
| 20260507212745 | 63 | 223 | 3.5 | 5.2 | 0.00 | 0.00 | 0.00 | 62 | 1018.7 |
| 20260507212241 | 64 | 264 | 4.3 | 7.0 | 0.00 | 0.00 | 0.00 | 60 | 1019.0 |
| 20260507211737 | 63 | 319 | 0.9 | 0.9 | 0.00 | 0.00 | 0.00 | 60 | 1019.0 |
| 20260507211234 | 64 | 319 | 2.6 | 4.3 | 0.00 | 0.00 | 0.00 | 59 | 1019.0 |
| 20260507210731 | 63 | 290 | 0.9 | 0.9 | 0.00 | 0.00 | 0.00 | 62 | 1019.0 |
| 20260507210228 | 63 | 276 | 2.6 | 4.3 | 0.00 | 0.00 | 0.00 | 61 | 1019.2 |
| 20260507205724 | 62 | 227 | 1.7 | 2.6 | 0.00 | 0.00 | 0.00 | 63 | 1019.3 |
| 20260507205221 | 63 | 298 | 0.9 | 0.9 | 0.00 | 0.00 | 0.00 | 63 | 1019.4 |
| 20260507204717 | 63 | 183 | 2.6 | 2.6 | 0.00 | 0.00 | 0.00 | 62 | 1019.3 |
| 20260507204215 | 63 | 266 | 3.5 | 5.2 | 0.00 | 0.00 | 0.00 | 62 | 1019.4 |
| 20260507203713 | 62 | 273 | 4.3 | 6.1 | 0.00 | 0.00 | 0.00 | 64 | 1019.4 |
| 20260507203210 | 63 | 201 | 0.9 | 1.7 | 0.00 | 0.00 | 0.00 | 61 | 1019.4 |
| 20260507202706 | 60 | 285 | 2.6 | 2.6 | 0.00 | 0.00 | 0.00 | 66 | 1019.5 |
| 20260507202202 | 60 | 348 | 2.6 | 4.3 | 0.00 | 0.00 | 0.00 | 66 | 1019.6 |
| 20260507201657 | 60 | 257 | 2.6 | 2.6 | 0.00 | 0.00 | 0.00 | 68 | 1019.8 |
| 20260507201154 | 60 | 260 | 5.2 | 6.1 | 0.00 | 0.00 | 0.00 | 65 | 1019.7 |
| 20260507200650 | 60 | 267 | 2.6 | 2.6 | 0.00 | 0.00 | 0.00 | 66 | 1019.5 |
| 20260507200146 | 60 | 176 | 1.7 | 1.7 | 0.00 | 0.00 | 0.00 | 67 | 1019.8 |
| 20260507195643 | 61 | 214 | 3.5 | 4.3 | 0.00 | 0.00 | 0.00 | 63 | 1019.8 |
| 20260507195140 | 61 | 107 | 2.6 | 4.3 | 0.00 | 0.00 | 0.00 | 63 | 1019.8 |
| 20260507194637 | 61 | 41 | 1.7 | 1.7 | 0.00 | 0.00 | 0.00 | 64 | 1019.7 |
| 20260507194132 | 61 | 348 | 0.9 | 0.9 | 0.00 | 0.00 | 0.00 | 64 | 1019.8 |
| 20260507193630 | 62 | 261 | 0.0 | 0.9 | 0.00 | 0.00 | 0.00 | 62 | 1020.0 |
| 20260507193127 | 61 | 273 | 0.0 | 0.9 | 0.00 | 0.00 | 0.00 | 65 | 1020.0 |
| 20260507192623 | 61 | 161 | 0.9 | 1.7 | 0.00 | 0.00 | 0.00 | 64 | 1019.9 |
| 20260507192120 | 60 | 304 | 0.0 | 0.9 | 0.00 | 0.00 | 0.00 | 66 | 1019.9 |
| 20260507191616 | 59 | 271 | 0.9 | 2.6 | 0.00 | 0.00 | 0.00 | 67 | 1019.7 |
| 20260507191112 | 60 | 257 | 2.6 | 2.6 | 0.00 | 0.00 | 0.00 | 66 | 1020.0 |
| 20260507190610 | 60 | 297 | 4.3 | 5.2 | 0.00 | 0.00 | 0.00 | 65 | 1020.1 |
| 20260507190109 | 59 | 253 | 2.6 | 2.6 | 0.00 | 0.00 | 0.00 | 68 | 1020.1 |
| 20260507185607 | 59 | 217 | 4.3 | 5.2 | 0.00 | 0.00 | 0.00 | 67 | 1020.1 |
| 20260507185103 | 59 | 229 | 0.9 | 0.9 | 0.00 | 0.00 | 0.00 | 67 | 1020.2 |
| 20260507184601 | 59 | 197 | 2.6 | 2.6 | 0.00 | 0.00 | 0.00 | 65 | 1020.1 |
| 20260507184059 | 59 | 162 | 5.2 | 6.1 | 0.00 | 0.00 | 0.00 | 67 | 1020.2 |
| 20260507183554 | 58 | 125 | 0.0 | 0.9 | 0.00 | 0.00 | 0.00 | 69 | 1020.2 |
| 20260507183052 | 59 | 115 | 2.6 | 4.3 | 0.00 | 0.00 | 0.00 | 68 | 1020.1 |
| 20260507182548 | 58 | 198 | 5.2 | 7.0 | 0.00 | 0.00 | 0.00 | 68 | 1020.0 |
| 20260507182044 | 57 | 172 | 4.3 | 5.2 | 0.00 | 0.00 | 0.00 | 71 | 1020.2 |
| 20260507181541 | 57 | 162 | 6.1 | 6.1 | 0.00 | 0.00 | 0.00 | 73 | 1020.1 |
| 20260507181037 | 59 | 192 | 3.5 | 4.3 | 0.00 | 0.00 | 0.00 | 70 | 1020.1 |
| 20260507180534 | 60 | 224 | 0.9 | 2.6 | 0.00 | 0.00 | 0.00 | 67 | 1020.1 |
| 20260507180031 | 59 | 278 | 1.7 | 2.6 | 0.00 | 0.00 | 0.00 | 70 | 1020.3 |
| 20260507175527 | 60 | 186 | 4.3 | 6.1 | 0.00 | 0.00 | 0.00 | 68 | 1020.2 |
| 20260507175025 | 59 | 197 | 3.5 | 5.2 | 0.00 | 0.00 | 0.00 | 70 | 1020.3 |
| 20260507174521 | 60 | 268 | 5.2 | 7.0 | 0.00 | 0.00 | 0.00 | 69 | 1020.2 |
| 20260507174019 | 59 | 236 | 3.5 | 5.2 | 0.00 | 0.00 | 0.00 | 71 | 1020.5 |
| 20260507173516 | 58 | 237 | 2.6 | 2.6 | 0.00 | 0.00 | 0.00 | 72 | 1020.4 |
| 20260507173014 | 59 | 189 | 4.3 | 5.2 | 0.00 | 0.00 | 0.00 | 71 | 1020.2 |
| 20260507172509 | 58 | 152 | 4.3 | 5.2 | 0.00 | 0.00 | 0.00 | 73 | 1020.5 |
| 20260507172006 | 59 | 264 | 1.7 | 4.3 | 0.00 | 0.00 | 0.00 | 71 | 1020.5 |
| 20260507171502 | 57 | 258 | 2.6 | 4.3 | 0.00 | 0.00 | 0.00 | 75 | 1020.4 |
| 20260507171000 | 57 | 257 | 6.1 | 7.0 | 0.00 | 0.00 | 0.00 | 75 | 1020.4 |
| 20260507170456 | 56 | 229 | 4.3 | 5.2 | 0.00 | 0.00 | 0.00 | 76 | 1020.5 |
| 20260507165952 | 56 | 227 | 2.6 | 2.6 | 0.00 | 0.00 | 0.00 | 76 | 1020.3 |
| 20260507165448 | 56 | 226 | 4.3 | 6.1 | 0.00 | 0.00 | 0.00 | 77 | 1020.2 |
| 20260507164944 | 56 | 230 | 0.9 | 1.7 | 0.00 | 0.00 | 0.00 | 78 | 1020.4 |
| 20260507164441 | 55 | 193 | 2.6 | 2.6 | 0.00 | 0.00 | 0.00 | 80 | 1020.6 |
| 20260507163938 | 55 | 214 | 3.5 | 5.2 | 0.00 | 0.00 | 0.00 | 80 | 1020.6 |
| 20260507163435 | 55 | 197 | 7.0 | 7.8 | 0.00 | 0.00 | 0.00 | 78 | 1020.6 |
| 20260507162932 | 55 | 204 | 3.5 | 4.3 | 0.00 | 0.00 | 0.00 | 79 | 1020.6 |
| 20260507162427 | 55 | 201 | 4.3 | 6.1 | 0.00 | 0.00 | 0.00 | 80 | 1020.4 |
| 20260507161925 | 55 | 187 | 2.6 | 2.6 | 0.00 | 0.00 | 0.00 | 79 | 1020.5 |
| 20260507161421 | 55 | 238 | 3.5 | 4.3 | 0.00 | 0.00 | 0.00 | 80 | 1020.3 |
| 20260507160918 | 54 | 252 | 2.6 | 4.3 | 0.00 | 0.00 | 0.00 | 81 | 1020.7 |
| 20260507160414 | 55 | 275 | 4.3 | 5.2 | 0.00 | 0.00 | 0.00 | 79 | 1020.6 |
| 20260507155910 | 55 | 238 | 0.9 | 1.7 | 0.00 | 0.00 | 0.00 | 81 | 1020.6 |
| 20260507155406 | 55 | 260 | 0.9 | 0.9 | 0.00 | 0.00 | 0.00 | 81 | 1020.5 |
| 20260507154903 | 54 | 270 | 1.7 | 1.7 | 0.00 | 0.00 | 0.00 | 82 | 1020.6 |
| 20260507154400 | 53 | 204 | 2.6 | 2.6 | 0.00 | 0.00 | 0.00 | 84 | 1020.7 |
| 20260507153857 | 53 | 259 | 2.6 | 2.6 | 0.00 | 0.00 | 0.00 | 84 | 1021.0 |
| 20260507153353 | 53 | 236 | 2.6 | 2.6 | 0.00 | 0.00 | 0.00 | 84 | 1020.7 |
| 20260507152850 | 54 | 234 | 2.6 | 4.3 | 0.00 | 0.00 | 0.00 | 84 | 1020.7 |
| 20260507152347 | 54 | 273 | 1.7 | 2.6 | 0.00 | 0.00 | 0.00 | 84 | 1020.7 |
| 20260507151843 | 52 | 285 | 0.9 | 1.7 | 0.00 | 0.00 | 0.00 | 86 | 1020.7 |
| 20260507151339 | 53 | 268 | 2.6 | 4.3 | 0.00 | 0.00 | 0.00 | 86 | 1020.7 |
| 20260507150836 | 53 | 260 | 1.7 | 1.7 | 0.00 | 0.00 | 0.00 | 86 | 1020.7 |
| 20260507150333 | 52 | 267 | 5.2 | 6.1 | 0.00 | 0.00 | 0.00 | 86 | 1020.6 |
| 20260507145829 | 51 | 246 | 2.6 | 2.6 | 0.00 | 0.00 | 0.00 | 87 | 1020.6 |
| 20260507145325 | 52 | 238 | 2.6 | 4.3 | 0.00 | 0.00 | 0.00 | 87 | 1020.5 |
| 20260507144823 | 52 | 275 | 4.3 | 5.2 | 0.00 | 0.00 | 0.00 | 87 | 1020.6 |
| 20260507144320 | 52 | 254 | 3.5 | 4.3 | 0.00 | 0.00 | 0.00 | 88 | 1020.6 |
| 20260507143816 | 51 | 273 | 1.7 | 1.7 | 0.00 | 0.00 | 0.00 | 89 | 1020.8 |
| 20260507143314 | 51 | 263 | 0.0 | 0.9 | 0.00 | 0.00 | 0.00 | 90 | 1020.6 |
| 20260507142809 | 51 | 231 | 0.9 | 0.9 | 0.00 | 0.00 | 0.00 | 90 | 1020.4 |
| 20260507142307 | 51 | 243 | 1.7 | 2.6 | 0.00 | 0.00 | 0.00 | 90 | 1020.7 |
| 20260507141803 | 51 | 210 | 1.7 | 1.7 | 0.00 | 0.00 | 0.00 | 90 | 1020.6 |
| 20260507141300 | 51 | 201 | 3.5 | 4.3 | 0.00 | 0.00 | 0.00 | 90 | 1020.5 |
| 20260507140756 | 51 | 234 | 0.9 | 0.9 | 0.00 | 0.00 | 0.00 | 90 | 1020.4 |
| 20260507140253 | 51 | 286 | 0.9 | 0.9 | 0.00 | 0.00 | 0.00 | 90 | 1020.4 |
| 20260507135750 | 51 | 276 | 0.9 | 1.7 | 0.00 | 0.00 | 0.00 | 90 | 1020.4 |
| 20260507135248 | 51 | 242 | 0.9 | 1.7 | 0.00 | 0.00 | 0.00 | 90 | 1020.6 |
| 20260507134744 | 51 | 258 | 0.9 | 0.9 | 0.00 | 0.00 | 0.00 | 90 | 1020.4 |
| 20260507134241 | 51 | 249 | 2.6 | 4.3 | 0.00 | 0.00 | 0.00 | 91 | 1020.5 |
| 20260507133736 | 51 | 271 | 0.9 | 0.9 | 0.00 | 0.00 | 0.00 | 91 | 1020.3 |
| 20260507133233 | 51 | 270 | 1.7 | 1.7 | 0.00 | 0.00 | 0.00 | 91 | 1020.2 |
| 20260507132731 | 51 | 252 | 2.6 | 4.3 | 0.00 | 0.00 | 0.00 | 91 | 1020.5 |
| 20260507132227 | 51 | 262 | 1.7 | 1.7 | 0.00 | 0.00 | 0.00 | 91 | 1020.4 |
| 20260507131724 | 51 | 251 | 2.6 | 2.6 | 0.00 | 0.00 | 0.00 | 91 | 1020.3 |
| 20260507131221 | 51 | 282 | 1.7 | 1.7 | 0.00 | 0.00 | 0.00 | 90 | 1020.5 |
| 20260507130718 | 51 | 278 | 1.7 | 2.6 | 0.00 | 0.00 | 0.00 | 90 | 1020.1 |
| 20260507130216 | 51 | 291 | 0.9 | 0.9 | 0.00 | 0.00 | 0.00 | 90 | 1020.4 |
| 20260507125714 | 51 | 279 | 0.0 | 0.0 | 0.00 | 0.00 | 0.00 | 90 | 1020.6 |
| 20260507125212 | 51 | 269 | 0.0 | 0.0 | 0.00 | 0.00 | 0.00 | 90 | 1020.4 |
| 20260507124708 | 51 | 267 | 0.0 | 0.9 | 0.00 | 0.00 | 0.00 | 90 | 1020.3 |
| 20260507124205 | 51 | 267 | 0.0 | 0.0 | 0.00 | 0.00 | 0.00 | 89 | 1020.3 |
| 20260507123703 | 51 | 264 | 0.9 | 0.9 | 0.00 | 0.00 | 0.00 | 89 | 1020.3 |
| 20260507123200 | 51 | 258 | 1.7 | 1.7 | 0.00 | 0.00 | 0.00 | 89 | 1020.5 |
| 20260507122655 | 51 | 249 | 0.9 | 0.9 | 0.00 | 0.00 | 0.00 | 89 | 1020.6 |
| 20260507122151 | 51 | 250 | 0.0 | 0.0 | 0.00 | 0.00 | 0.00 | 89 | 1020.5 |
| 20260507121648 | 51 | 247 | 0.0 | 0.0 | 0.00 | 0.00 | 0.00 | 89 | 1020.5 |
| 20260507121144 | 51 | 247 | 0.0 | 0.0 | 0.00 | 0.00 | 0.00 | 89 | 1020.6 |
| 20260507120640 | 51 | 235 | 0.0 | 0.0 | 0.00 | 0.00 | 0.00 | 89 | 1020.5 |
| 20260507120137 | 51 | 235 | 0.0 | 0.0 | 0.00 | 0.00 | 0.00 | 89 | 1020.6 |
| 20260507115633 | 51 | 233 | 0.9 | 0.9 | 0.00 | 0.00 | 0.00 | 88 | 1020.5 |
| 20260507115128 | 51 | 204 | 3.5 | 4.3 | 0.00 | 0.00 | 0.00 | 89 | 1020.5 |
| 20260507114625 | 51 | 236 | 0.9 | 0.9 | 0.00 | 0.00 | 0.00 | 88 | 1020.5 |
| 20260507114122 | 51 | 227 | 0.0 | 0.9 | 0.00 | 0.00 | 0.00 | 88 | 1020.4 |
| 20260507113619 | 51 | 198 | 3.5 | 4.3 | 0.00 | 0.00 | 0.00 | 88 | 1020.6 |
| 20260507113116 | 51 | 217 | 2.6 | 2.6 | 0.00 | 0.00 | 0.00 | 88 | 1020.7 |
| 20260507112614 | 51 | 211 | 3.5 | 4.3 | 0.00 | 0.00 | 0.00 | 88 | 1020.7 |
| 20260507112111 | 51 | 183 | 5.2 | 6.1 | 0.00 | 0.00 | 0.00 | 88 | 1020.8 |
| 20260507111608 | 51 | 203 | 1.7 | 1.7 | 0.00 | 0.00 | 0.00 | 87 | 1021.0 |
| 20260507111104 | 51 | 207 | 4.3 | 5.2 | 0.00 | 0.00 | 0.00 | 87 | 1020.8 |
| 20260507110601 | 51 | 206 | 3.5 | 4.3 | 0.00 | 0.00 | 0.00 | 88 | 1020.7 |
| 20260507110057 | 51 | 196 | 2.6 | 2.6 | 0.00 | 0.00 | 0.00 | 87 | 1020.9 |
| 20260507105554 | 51 | 214 | 2.6 | 2.6 | 0.00 | 0.00 | 0.00 | 87 | 1020.9 |